When you browse on this site, cookies collect data to enhance your experience and personalize the content and advertising you see.
Visit our Privacy Policy to learn more. By continuing to use the site, you agree to this use of cookies and data.
  • în România
  • Lista ţărilor
  • Pe 7 zile
  • Temperatura apei
  • Hartă satelitară
  • Meteo pe hartă
  • Widget-uri
  • user-avatar
    Intrare

    Meteo pe oră la Korobino

    Astăzi, 25 Aprilie, Joi

    Timp Temperatura Precipitaţii Vânt Presiune Umiditate
    00:00 +12°C° 0 mm 1 m/s 751 mmHg 63%
    01:00 +12°C° 0 mm 1 m/s 751 mmHg 65%
    02:00 +10°C° 0 mm 0 m/s 751 mmHg 69%
    03:00 +10°C° 0 mm 0 m/s 751 mmHg 69%
    04:00 +10°C° 0 mm 0 m/s 751 mmHg 70%
    05:00 +11°C° 0 mm 1 m/s 751 mmHg 71%
    06:00 +13°C° 0 mm 1 m/s 751 mmHg 64%
    07:00 +15°C° 0 mm 1 m/s 751 mmHg 58%
    08:00 +18°C° 0 mm 1 m/s 751 mmHg 51%
    09:00 +20°C° 0 mm 1 m/s 751 mmHg 46%
    10:00 +22°C° 0 mm 1 m/s 751 mmHg 41%
    11:00 +24°C° 0 mm 1 m/s 751 mmHg 36%
    12:00 +25°C° 0 mm 1 m/s 750 mmHg 34%
    13:00 +25°C° 0 mm 1 m/s 750 mmHg 33%
    14:00 +23°C° 0 mm 0 m/s 750 mmHg 31%
    15:00 +24°C° 0 mm 1 m/s 750 mmHg 35%
    16:00 +23°C° 0 mm 1 m/s 750 mmHg 40%
    17:00 +21°C° 0 mm 1 m/s 749 mmHg 45%
    18:00 +20°C° 0 mm 1 m/s 749 mmHg 47%
    19:00 +17°C° 0 mm 0 m/s 749 mmHg 49%
    20:00 +16°C° 0 mm 0 m/s 749 mmHg 51%
    21:00 +16°C° 0.2 mm 1 m/s 749 mmHg 55%
    22:00 +15°C° 0.2 mm 1 m/s 749 mmHg 60%
    23:00 +14°C° 0.2 mm 1 m/s 749 mmHg 64%

    Mâine, 26 Aprilie, Vineri

    Timp Temperatura Precipitaţii Vânt Presiune Umiditate
    00:00 +14°C° 0 mm 1 m/s 749 mmHg 66%
    01:00 +13°C° 0 mm 1 m/s 749 mmHg 68%
    02:00 +13°C° 0 mm 1 m/s 749 mmHg 69%
    03:00 +13°C° 0 mm 1 m/s 749 mmHg 71%
    04:00 +12°C° 0 mm 1 m/s 749 mmHg 72%
    05:00 +11°C° 0 mm 0 m/s 749 mmHg 74%
    06:00 +14°C° 0.1 mm 1 m/s 749 mmHg 70%
    07:00 +15°C° 0.1 mm 1 m/s 749 mmHg 65%
    08:00 +18°C° 0.1 mm 1 m/s 749 mmHg 61%
    09:00 +19°C° 0 mm 1 m/s 749 mmHg 55%
    10:00 +21°C° 0 mm 1 m/s 748 mmHg 49%
    11:00 +21°C° 0 mm 2 m/s 748 mmHg 43%
    12:00 +21°C° 0 mm 2 m/s 748 mmHg 41%
    13:00 +21°C° 0 mm 2 m/s 748 mmHg 38%
    14:00 +23°C° 0 mm 2 m/s 747 mmHg 36%
    15:00 +22°C° 0 mm 1 m/s 747 mmHg 37%
    16:00 +22°C° 0 mm 1 m/s 747 mmHg 39%
    17:00 +22°C° 0 mm 1 m/s 746 mmHg 40%
    18:00 +21°C° 0 mm 1 m/s 746 mmHg 44%
    19:00 +19°C° 0 mm 1 m/s 746 mmHg 47%
    20:00 +17°C° 0 mm 2 m/s 746 mmHg 51%
    21:00 +16°C° 0 mm 2 m/s 746 mmHg 54%
    22:00 +15°C° 0 mm 2 m/s 745 mmHg 57%
    23:00 +14°C° 0 mm 2 m/s 745 mmHg 60%

    Poimâine, 27 Aprilie, Sâmbătă

    Timp Temperatura Precipitaţii Vânt Presiune Umiditate
    00:00 +13°C° 0 mm 2 m/s 745 mmHg 62%
    01:00 +13°C° 0 mm 2 m/s 744 mmHg 65%
    02:00 +12°C° 0 mm 1 m/s 744 mmHg 67%
    03:00 +12°C° 0 mm 2 m/s 744 mmHg 68%
    04:00 +12°C° 0 mm 2 m/s 743 mmHg 70%
    05:00 +13°C° 0 mm 2 m/s 743 mmHg 71%
    06:00 +14°C° 0 mm 2 m/s 743 mmHg 65%
    07:00 +16°C° 0 mm 3 m/s 742 mmHg 60%
    08:00 +18°C° 0 mm 3 m/s 742 mmHg 54%
    09:00 +19°C° 0 mm 4 m/s 742 mmHg 49%
    10:00 +20°C° 0 mm 4 m/s 741 mmHg 44%
    11:00 +22°C° 0 mm 5 m/s 741 mmHg 38%
    12:00 +22°C° 0 mm 4 m/s 740 mmHg 37%
    13:00 +23°C° 0 mm 4 m/s 740 mmHg 36%
    14:00 +23°C° 0 mm 4 m/s 740 mmHg 34%
    15:00 +24°C° 0 mm 3 m/s 739 mmHg 36%
    16:00 +22°C° 0 mm 3 m/s 739 mmHg 37%
    17:00 +23°C° 0 mm 2 m/s 738 mmHg 39%
    18:00 +20°C° 0.1 mm 2 m/s 738 mmHg 47%
    19:00 +18°C° 0.1 mm 2 m/s 738 mmHg 55%
    20:00 +16°C° 0.1 mm 2 m/s 738 mmHg 64%
    21:00 +15°C° 0.5 mm 2 m/s 738 mmHg 72%
    22:00 +13°C° 0.5 mm 3 m/s 738 mmHg 81%
    23:00 +12°C° 0.5 mm 3 m/s 738 mmHg 90%

    28 Aprilie, Duminică

    Timp Temperatura Precipitaţii Vânt Presiune Umiditate
    00:00 +11°C° 0.4 mm 4 m/s 738 mmHg 90%
    01:00 +11°C° 0.4 mm 4 m/s 739 mmHg 89%
    02:00 +11°C° 0.4 mm 4 m/s 739 mmHg 89%
    03:00 +9°C° 0.1 mm 5 m/s 740 mmHg 87%
    04:00 +7°C° 0.1 mm 5 m/s 740 mmHg 86%
    05:00 +6°C° 0.1 mm 5 m/s 741 mmHg 85%
    06:00 +6°C° 0 mm 5 m/s 741 mmHg 81%
    07:00 +5°C° 0 mm 5 m/s 742 mmHg 77%
    08:00 +3°C° 0 mm 6 m/s 743 mmHg 73%
    09:00 +5°C° 0 mm 5 m/s 744 mmHg 63%
    10:00 +6°C° 0 mm 5 m/s 745 mmHg 54%
    11:00 +7°C° 0 mm 5 m/s 745 mmHg 44%
    12:00 +7°C° 0 mm 5 m/s 745 mmHg 42%
    13:00 +8°C° 0 mm 5 m/s 746 mmHg 40%
    14:00 +8°C° 0 mm 5 m/s 746 mmHg 38%
    15:00 +8°C° 0 mm 5 m/s 746 mmHg 39%
    16:00 +7°C° 0 mm 5 m/s 746 mmHg 39%
    17:00 +7°C° 0 mm 5 m/s 747 mmHg 40%
    18:00 +5°C° 0 mm 4 m/s 747 mmHg 44%
    19:00 +4°C° 0 mm 3 m/s 748 mmHg 48%
    20:00 +2°C° 0 mm 3 m/s 748 mmHg 52%
    21:00 +2°C° 0 mm 3 m/s 749 mmHg 54%
    22:00 +1°C° 0 mm 3 m/s 749 mmHg 57%
    23:00 +1°C° 0 mm 2 m/s 750 mmHg 60%

    29 Aprilie, Luni

    Timp Temperatura Precipitaţii Vânt Presiune Umiditate
    00:00 +1°C° 0 mm 2 m/s 750 mmHg 62%
    01:00 +1°C° 0 mm 2 m/s 750 mmHg 63%
    02:00 -1°C° 0 mm 2 m/s 751 mmHg 65%
    03:00 -1°C° 0 mm 2 m/s 751 mmHg 66%
    04:00 -1°C° 0 mm 2 m/s 751 mmHg 67%
    05:00 -2°C° 0 mm 2 m/s 751 mmHg 68%
    06:00 0°C° 0 mm 3 m/s 751 mmHg 60%
    07:00 +1°C° 0 mm 3 m/s 752 mmHg 52%
    08:00 +3°C° 0 mm 3 m/s 752 mmHg 44%
    09:00 +4°C° 0 mm 3 m/s 752 mmHg 41%
    10:00 +5°C° 0 mm 3 m/s 752 mmHg 38%
    11:00 +7°C° 0 mm 3 m/s 752 mmHg 35%
    12:00 +7°C° 0 mm 3 m/s 752 mmHg 34%
    13:00 +8°C° 0 mm 3 m/s 751 mmHg 34%
    14:00 +9°C° 0 mm 3 m/s 751 mmHg 33%
    15:00 +8°C° 0 mm 3 m/s 751 mmHg 34%
    16:00 +8°C° 0 mm 3 m/s 751 mmHg 36%
    17:00 +8°C° 0 mm 3 m/s 750 mmHg 37%
    18:00 +6°C° 0 mm 2 m/s 751 mmHg 43%
    19:00 +5°C° 0 mm 2 m/s 751 mmHg 50%
    20:00 +3°C° 0 mm 2 m/s 751 mmHg 56%
    21:00 +3°C° 0 mm 1 m/s 751 mmHg 58%
    22:00 +2°C° 0 mm 1 m/s 751 mmHg 59%
    23:00 +2°C° 0 mm 1 m/s 751 mmHg 61%

    30 Aprilie, Marţi

    Timp Temperatura Precipitaţii Vânt Presiune Umiditate
    00:00 +1°C° 0 mm 1 m/s 752 mmHg 61%
    01:00 +1°C° 0 mm 1 m/s 752 mmHg 61%
    02:00 -1°C° 0 mm 0 m/s 752 mmHg 61%
    03:00 -1°C° 0 mm 0 m/s 752 mmHg 60%
    04:00 0°C° 0 mm 0 m/s 752 mmHg 58%
    05:00 0°C° 0 mm 0 m/s 752 mmHg 56%
    06:00 +3°C° 0 mm 1 m/s 752 mmHg 50%
    07:00 +5°C° 0 mm 1 m/s 752 mmHg 43%
    08:00 +8°C° 0 mm 1 m/s 752 mmHg 36%
    09:00 +9°C° 0 mm 1 m/s 752 mmHg 34%
    10:00 +10°C° 0 mm 1 m/s 752 mmHg 32%
    11:00 +11°C° 0 mm 1 m/s 751 mmHg 30%
    12:00 +12°C° 0 mm 1 m/s 751 mmHg 29%
    13:00 +13°C° 0 mm 1 m/s 750 mmHg 29%
    14:00 +13°C° 0 mm 1 m/s 750 mmHg 28%
    15:00 +13°C° 0 mm 1 m/s 750 mmHg 29%
    16:00 +12°C° 0 mm 1 m/s 749 mmHg 30%
    17:00 +11°C° 0 mm 0 m/s 749 mmHg 31%
    18:00 +9°C° 0 mm 0 m/s 749 mmHg 36%
    19:00 +8°C° 0 mm 1 m/s 749 mmHg 41%
    20:00 +6°C° 0 mm 1 m/s 748 mmHg 47%
    21:00 +5°C° 0 mm 1 m/s 748 mmHg 49%
    22:00 +5°C° 0 mm 1 m/s 748 mmHg 51%
    23:00 +4°C° 0 mm 1 m/s 748 mmHg 53%
    Arată mai mult